This is the latest recevied weather packets stored in our database for station/object YO6LRV-3. If no packets are shown the sender has not sent any weather packets the latest 1 day(s).
| Time | Temp. | Humidity | Pressure | Rain* | Wind** | Luminosity | Snow |
|---|---|---|---|---|---|---|---|
| 1777840565 | 12.78° C | 37% | 1018.2 hPa | - | - | - | - |
| 1777838765 | 13.33° C | 37% | 1018.1 hPa | - | - | - | - |
| 1777836964 | 13.33° C | 38% | 1018.1 hPa | - | - | - | - |
| 1777836064 | 13.89° C | 38% | 1018.1 hPa | - | - | - | - |
| 1777835167 | 13.89° C | 36% | 1018.1 hPa | - | - | - | - |
| 1777834267 | 13.33° C | 38% | 1017.2 hPa | - | - | - | - |
| 1777833366 | 13.89° C | 38% | 1018.1 hPa | - | - | - | - |
| 1777832466 | 14.44° C | 37% | 1018 hPa | - | - | - | - |
| 1777831566 | 14.44° C | 38% | 1017.8 hPa | - | - | - | - |
| 1777830666 | 15° C | 38% | 1017.8 hPa | - | - | - | - |
| 1777829766 | 15° C | 39% | 1017.8 hPa | - | - | - | - |
| 1777828866 | 15.56° C | 38% | 1017.8 hPa | - | - | - | - |
| 1777827966 | 15.56° C | 37% | 1017.8 hPa | - | - | - | - |
| 1777827065 | 16.11° C | 35% | 1017.9 hPa | - | - | - | - |
| 1777826165 | 16.11° C | 36% | 1017.9 hPa | - | - | - | - |
| 1777825265 | 16.67° C | 35% | 1018 hPa | - | - | - | - |
| 1777824365 | 16.67° C | 35% | 1018 hPa | - | - | - | - |
| 1777823465 | 17.22° C | 35% | 1018.1 hPa | - | - | - | - |
| 1777822558 | 17.22° C | 35% | 1018.1 hPa | - | - | - | - |
| 1777821666 | 17.78° C | 34% | 1018.3 hPa | - | - | - | - |
| 1777820758 | 17.78° C | 34% | 1018.3 hPa | - | - | - | - |
| 1777819865 | 17.78° C | 34% | 1018.4 hPa | - | - | - | - |
| 1777818964 | 18.33° C | 34% | 1018.5 hPa | - | - | - | - |
| 1777817164 | 18.89° C | 32% | 1018.8 hPa | - | - | - | - |
| 1777815364 | 19.44° C | 32% | 1019.1 hPa | - | - | - | - |
* Rain since midnight (hover to see other rain measurements)
** Current wind speed in m/s (hover to see current wind gust speed)